Theta_e
332 326 328 338 344 343 337 327 331 335 335 336 337 338 339 339 338 336 335 335 336 336 336 335 333 332 332 332 332 333 333 333 332 331 331 333 333 339 339 334 342 346 347
324 325 327 335 344 343 338 328 331 336 337 338 339 339 339 339 338 337 335 336 336 335 334 333 333 333 335 338 339 338 338 338 338 338 339 339 336 338 342 340 334 337 331
324 325 327 331 338 342 339 330 332 336 338 339 340 339 338 338 337 337 335 336 335 334 334 334 337 340 339 336 335 335 334 334 332 330 327 326 344 348 347 343 339 341 339
324 324 326 329 334 340 339 335 335 337 339 340 341 340 339 338 337 336 334 334 334 335 339 340 340 337 334 330 326 325 324 321 319 318 324 328 328 347 347 343 343 340 335
331 326 326 328 332 337 339 338 339 339 339 341 341 340 337 335 334 333 333 333 339 341 340 338 336 331 327 320 320 319 319 319 320 321 321 326 327 344 344 340 339 333 327
343 328 326 327 330 333 337 339 340 339 339 340 339 334 333 333 332 332 333 342 342 339 334 330 325 321 319 319 319 319 320 321 321 322 323 322 325 339 341 339 334 328 323
349 331 327 327 328 329 332 334 336 337 336 334 333 332 331 330 331 332 341 342 335 326 323 321 320 319 320 321 322 322 322 322 322 326 328 328 327 326 333 333 329 324 322
349 335 333 329 328 328 329 330 331 331 331 331 330 330 330 331 332 338 341 333 323 320 320 320 322 323 325 327 329 329 327 326 325 327 330 330 329 327 328 328 325 324 323
346 338 336 333 330 329 329 329 330 331 331 330 330 331 333 335 336 342 331 319 319 321 323 325 325 326 330 332 332 332 333 333 331 329 331 330 331 331 329 328 324 323 325
344 333 334 334 332 331 332 332 332 330 329 331 334 335 337 335 337 333 319 329 326 324 332 331 331 332 332 333 333 335 335 334 335 334 333 333 332 330 331 324 325 326 327
346 340 332 335 333 331 331 330 329 329 334 332 329 326 326 327 329 324 330 329 328 329 332 332 333 333 334 334 333 332 332 333 332 333 333 332 333 330 330 330 331 331 330
344 343 340 339 335 339 336 329 330 333 327 325 321 325 329 335 339 335 329 328 328 334 333 333 333 333 333 331 331 331 331 330 329 329 327 327 328 327 326 326 325 328 332
341 342 341 340 340 341 341 332 330 326 330 331 330 335 336 334 336 336 335 335 334 334 333 333 332 332 331 330 329 326 325 323 321 320 320 319 319 318 322 324 323 323 324
339 340 341 339 340 341 341 336 337 333 332 334 333 332 335 332 338 335 335 334 332 333 332 332 331 330 325 322 320 320 320 319 318 318 318 318 319 320 322 321 321 322 322
336 339 340 339 340 340 336 339 339 335 333 333 333 333 334 335 336 335 333 332 332 332 331 330 325 320 319 319 320 319 318 318 318 318 319 319 319 318 320 321 323 326 326
333 338 338 336 339 337 337 336 336 332 333 335 335 336 333 333 334 330 331 331 331 329 328 321 319 318 319 319 318 318 318 318 318 317 317 317 319 320 322 323 323 322 322
331 336 337 336 335 339 338 335 335 337 336 338 337 335 333 330 329 328 329 326 325 324 319 319 318 319 318 317 317 315 316 315 314 316 316 316 318 319 319 319 320 320 321
331 336 338 338 335 336 339 338 338 339 338 337 335 333 330 327 326 326 324 321 321 319 319 318 317 317 316 314 313 314 314 313 314 314 316 316 315 315 316 317 318 319 319
341 339 339 339 339 338 339 339 340 338 335 334 332 330 329 329 327 325 321 319 318 317 317 317 317 315 313 312 313 314 314 312 312 314 313 313 313 314 314 314 315 316 316
341 346 340 342 341 342 341 342 339 336 333 331 330 329 330 328 325 322 318 317 318 317 315 316 314 312 312 313 312 314 312 312 312 313 311 311 312 313 312 313 313 313 315
340 344 351 343 344 342 344 341 337 335 333 332 330 329 330 326 322 317 317 317 317 314 316 314 313 312 312 312 312 312 311 311 311 311 311 311 312 311 310 310 311 312 312
334 343 347 348 346 346 345 341 337 335 335 331 329 329 326 323 320 315 316 317 315 315 315 313 314 314 313 312 312 311 311 311 312 311 310 310 310 310 310 310 311 311 312
336 343 342 341 342 343 342 340 338 336 332 330 327 326 323 319 315 316 316 315 315 314 313 313 314 314 314 312 312 311 313 313 311 310 310 309 309 310 310 311 311 311 312
335 339 338 339 338 338 339 339 336 334 333 327 323 321 318 317 317 316 315 315 314 313 312 312 314 314 315 313 313 312 312 312 312 312 310 310 310 310 310 311 311 311 313
336 334 333 333 333 333 335 334 332 325 324 321 319 318 317 316 318 316 315 314 314 313 311 312 312 312 313 314 314 313 313 313 312 310 311 310 311 310 311 311 311 311 311
332 330 329 329 327 328 329 327 326 323 319 318 315 314 312 313 314 313 312 312 313 312 311 311 312 312 312 311 312 311 312 313 312 312 311 311 311 310 311 311 311 311 311
Wind_Speed
18 21 19 20 21 20 18 18 16 15 14 14 14 13 13 12 12 11 10 10 9 9 9 9 9 9 10 10 10 9 9 9 9 9 9 8 8 7 4 2 4 2 3
26 22 20 20 21 20 18 17 16 15 14 13 12 11 11 10 9 9 8 8 8 8 8 8 8 9 9 10 10 10 11 11 11 11 12 13 12 11 10 6 1 2 4
27 23 20 19 19 19 18 17 15 14 13 12 10 9 8 7 7 6 7 7 7 7 8 8 8 8 9 9 10 11 11 12 13 14 16 16 13 13 17 10 5 3 5
27 23 21 19 19 18 17 16 15 13 12 10 9 8 6 5 4 5 5 6 7 7 7 7 8 8 9 10 10 11 11 12 14 17 17 20 24 12 3 11 5 4 5
23 22 21 19 18 18 17 16 14 12 10 9 7 5 4 3 3 4 4 5 6 6 6 7 7 8 9 10 11 12 13 14 17 19 22 20 27 15 10 10 12 5 8
20 21 21 19 18 17 16 15 13 11 9 7 5 4 3 2 3 3 4 4 4 4 5 5 6 7 8 9 11 12 13 15 17 20 21 22 22 13 15 13 12 9 10
25 23 22 20 18 17 16 15 12 10 8 6 4 3 3 2 2 2 2 3 3 4 4 5 6 8 10 12 15 16 17 18 20 21 25 27 24 18 17 16 14 13 12
28 26 22 19 18 17 15 14 12 10 8 7 5 4 3 3 2 2 1 1 2 3 4 6 7 9 11 14 17 19 19 20 20 21 27 27 22 20 20 19 18 16 15
24 24 21 20 18 16 15 14 12 10 9 7 6 5 4 3 4 3 2 1 1 2 5 8 10 11 13 18 19 21 21 22 22 21 26 28 28 29 26 25 18 15 15
23 20 21 19 18 17 15 14 12 11 9 8 6 6 5 6 6 5 4 3 2 4 7 9 11 12 17 20 20 19 17 19 20 20 23 28 26 18 22 15 14 16 17
24 20 18 17 18 16 15 14 13 12 10 9 9 8 6 6 6 8 4 5 4 7 10 11 11 14 17 16 14 18 19 17 22 22 22 24 11 4 8 14 17 18 19
30 27 21 20 19 20 17 17 14 13 13 12 12 7 2 1 7 9 5 7 5 9 9 9 10 11 11 18 19 21 23 23 22 21 20 15 16 17 16 16 16 16 16
34 33 27 25 24 26 23 20 18 16 15 13 12 8 4 4 5 9 5 3 2 4 5 7 11 14 19 23 24 25 24 23 23 24 26 30 32 34 23 17 17 18 19
31 33 34 26 28 31 23 23 20 20 16 16 17 13 10 7 5 6 7 6 6 8 11 14 17 20 20 23 21 22 21 19 23 26 28 26 24 23 25 28 29 25 23
26 31 32 29 20 30 21 23 19 18 21 21 17 15 11 10 3 4 4 5 7 9 11 16 21 19 20 20 16 18 24 27 26 25 24 21 21 24 27 22 22 17 15
28 31 33 28 23 23 17 21 23 21 18 16 15 12 7 6 1 4 5 9 8 11 14 18 15 17 15 17 22 23 22 23 20 23 26 25 22 20 14 13 13 15 17
29 28 31 27 24 21 16 18 16 15 12 15 13 9 4 1 5 6 6 10 13 16 17 13 13 15 20 21 24 25 21 25 26 22 24 23 21 14 14 15 16 18 17
25 29 29 25 23 20 18 15 12 7 6 13 9 10 13 9 6 8 7 11 14 16 12 14 18 21 21 24 22 19 23 24 25 25 23 15 18 21 20 19 20 20 21
30 21 25 24 23 21 19 14 11 12 14 17 14 13 10 3 7 7 7 9 13 12 14 17 16 19 22 21 20 20 22 27 22 18 21 23 20 20 21 20 21 20 20
22 24 16 24 23 18 17 17 16 15 15 12 9 6 1 7 7 9 9 10 8 13 14 12 18 19 18 19 22 16 24 19 16 13 23 21 19 23 27 23 24 24 21
14 6 15 25 20 15 17 18 19 14 10 4 3 4 8 8 7 6 8 7 9 14 10 14 15 16 18 18 15 19 17 17 9 29 19 20 16 25 27 27 25 22 26
31 3 3 11 19 21 19 14 14 10 7 5 4 4 5 7 7 7 4 4 10 9 10 14 13 12 14 16 7 10 4 6 5 19 19 17 19 24 30 32 28 24 25
18 2 14 21 20 14 13 12 13 11 11 7 2 2 5 9 8 2 2 5 5 8 11 13 13 12 11 17 12 4 3 3 12 6 16 17 22 26 30 30 31 27 25
18 11 14 17 19 16 14 13 14 12 8 7 4 1 6 6 4 2 2 3 6 10 11 13 12 14 12 15 14 6 11 16 3 4 7 20 18 22 28 28 29 28 26
17 15 14 16 15 14 15 15 14 15 12 8 5 5 6 9 7 4 2 6 7 10 12 12 14 15 12 12 11 16 16 14 14 7 10 12 18 23 23 26 26 28 25
18 16 15 16 16 13 11 9 9 9 8 7 8 10 10 12 11 6 9 8 9 12 14 14 15 15 14 14 14 18 18 12 11 8 7 14 15 20 22 22 26 31 26
Wind_Direction
136 135 137 133 137 136 132 133 131 128 124 118 112 108 102 97 92 86 80 77 70 64 58 51 47 39 34 30 25 18 12 3 355 347 338 325 311 303 314 8 63 70 347
142 138 138 135 139 139 137 137 138 134 128 122 117 112 106 101 93 84 77 69 64 56 50 43 36 31 24 18 12 5 357 351 344 336 326 318 312 292 290 303 348 314 341
138 140 138 137 139 142 141 142 141 137 133 129 124 120 114 104 93 80 72 66 56 48 40 34 28 22 17 9 2 355 350 346 341 332 331 332 329 314 277 272 285 319 348
139 143 141 139 140 144 145 146 145 144 144 139 134 126 113 101 88 79 66 56 44 39 35 29 21 14 6 359 355 352 350 348 343 340 339 337 333 307 223 243 249 268 344
139 144 143 142 141 142 147 148 149 150 149 144 141 131 122 112 90 73 58 47 42 36 27 16 8 1 360 358 356 351 347 346 344 342 338 332 339 263 223 233 219 255 320
144 149 148 147 145 143 148 151 153 155 156 153 155 140 131 118 97 79 55 48 41 21 12 6 4 1 359 348 342 336 332 331 330 331 330 326 321 276 256 226 223 262 292
150 155 154 153 152 151 155 156 158 160 161 161 163 154 146 133 113 80 65 41 15 13 16 8 358 353 348 339 331 325 322 321 321 324 320 317 309 308 268 251 251 266 275
149 154 155 156 159 157 160 159 161 166 165 167 164 159 156 158 152 128 93 358 1 7 359 349 339 335 331 330 328 323 317 312 309 311 317 317 318 298 279 254 256 267 271
144 152 156 160 161 161 163 161 162 162 163 162 162 164 167 172 168 161 180 196 310 336 332 329 327 326 333 336 332 326 323 319 308 302 309 311 318 302 285 264 261 264 278
139 150 159 163 165 167 164 164 164 165 164 163 165 167 172 173 171 174 194 212 310 321 344 333 336 330 333 331 326 334 332 325 321 311 308 312 315 301 273 257 278 289 293
149 151 159 165 170 167 170 169 168 167 165 162 157 156 158 172 176 189 213 278 302 316 321 323 329 333 337 328 330 323 324 324 325 318 312 313 334 13 305 300 300 302 304
158 163 159 163 164 168 173 172 169 168 162 151 147 136 146 222 220 211 267 278 295 333 325 341 341 336 320 318 316 311 312 316 316 312 313 313 328 320 319 310 305 301 297
169 170 171 176 170 173 182 167 160 162 160 158 156 141 145 161 160 144 98 115 319 346 352 314 302 299 310 311 313 316 316 313 314 312 306 305 305 310 313 317 318 309 299
173 173 175 177 176 180 185 173 161 167 163 166 170 198 194 188 182 211 234 262 294 310 295 295 303 314 320 321 327 321 321 315 310 315 316 315 312 305 312 311 311 305 299
167 159 170 167 136 171 179 174 174 173 177 183 198 195 197 209 219 243 284 331 319 293 300 312 324 332 328 329 326 319 318 320 319 317 320 323 321 316 311 309 310 324 329
158 158 161 168 145 149 156 160 163 169 171 177 184 179 173 201 296 339 2 354 314 317 318 329 337 328 327 326 324 323 322 325 327 326 324 330 331 331 329 326 319 317 314
160 161 166 171 175 169 151 154 154 143 155 167 165 151 147 30 350 6 5 341 324 323 337 342 326 325 325 328 325 323 328 325 330 336 330 326 334 335 336 327 323 317 312
158 162 162 172 181 187 187 173 157 152 144 157 143 124 92 81 41 353 359 339 321 335 343 334 336 332 334 339 334 333 326 330 330 329 339 344 335 336 342 334 323 313 313
15 161 168 179 183 186 191 191 172 163 132 131 135 133 122 6 306 310 321 329 330 334 339 342 343 341 345 350 344 328 328 328 333 342 337 341 345 344 340 331 322 317 312
340 337 183 178 180 169 175 164 149 143 127 128 124 119 335 295 311 328 331 340 344 343 351 347 346 352 354 351 340 333 332 336 344 332 346 349 355 346 333 333 328 324 319
212 265 330 153 170 163 152 141 137 121 121 134 214 251 269 317 328 351 339 354 344 354 356 345 350 353 353 355 347 333 330 337 341 336 348 348 341 340 342 340 334 327 318
187 149 306 152 170 182 182 165 136 128 133 172 192 275 328 325 345 326 2 360 344 360 340 342 339 337 339 349 335 328 328 325 320 334 339 340 327 338 334 346 340 326 317
156 153 111 108 115 120 136 132 129 133 122 120 141 285 328 337 330 349 313 353 352 351 343 342 340 325 322 326 340 305 313 292 319 278 325 332 336 341 338 340 340 335 324
184 126 116 110 107 115 121 108 109 113 130 137 146 334 341 341 328 256 262 358 331 342 344 337 333 331 319 314 326 325 272 283 306 308 298 312 337 328 337 337 332 338 337
124 114 114 104 99 97 101 110 111 109 117 123 95 32 36 11 294 277 307 351 320 334 337 320 330 335 330 320 309 306 306 295 284 255 310 320 316 329 331 322 329 333 328
126 118 109 99 86 85 104 120 114 114 96 78 57 34 23 25 47 55 353 358 344 332 329 322 316 325 323 330 323 322 313 296 290 292 299 315 320 329 313 329 325 329 330